This is the latest recevied weather packets stored in our database for station/object KM7BEO. If no packets are shown the sender has not sent any weather packets the latest 10 day(s).
| Time | Temp. | Humidity | Pressure | Rain* | Wind** | Luminosity | Snow |
|---|---|---|---|---|---|---|---|
| 1777862584 | 20° C | 57% | 1008.7 hPa | 0 mm | - | 21 W/m² | - |
| 1777862281 | 20.56° C | 55% | 1008.8 hPa | 0 mm | - | 23 W/m² | - |
| 1777861977 | 20.56° C | 53% | 1009 hPa | 0 mm | - | 27 W/m² | - |
| 1777861673 | 20.56° C | 53% | 1008.9 hPa | 0 mm | - | 34 W/m² | - |
| 1777861370 | 20.56° C | 52% | 1009 hPa | 0 mm | - | 32 W/m² | - |
| 1777861067 | 20.56° C | 51% | 1009.3 hPa | 0 mm | - | 33 W/m² | - |
| 1777860764 | 21.11° C | 50% | 1009 hPa | 0 mm | - | 31 W/m² | - |
| 1777860461 | 21.67° C | 49% | 1009.1 hPa | 0 mm | - | 39 W/m² | - |
| 1777860157 | 21.67° C | 47% | 1009.2 hPa | 0 mm | - | 78 W/m² | - |
| 1777859854 | 22.22° C | 45% | 1009.2 hPa | 0 mm | - | 113 W/m² | - |
| 1777859550 | 22.22° C | 46% | 1009.2 hPa | 0 mm | - | 114 W/m² | - |
| 1777859246 | 21.67° C | 46% | 1009.4 hPa | 0 mm | - | 144 W/m² | - |
| 1777858943 | 21.67° C | 45% | 1009.3 hPa | 0 mm | - | 151 W/m² | - |
| 1777858641 | 21.67° C | 45% | 1009.6 hPa | 0 mm | - | 158 W/m² | - |
| 1777858338 | 22.22° C | 44% | 1009.5 hPa | 0 mm | - | 53 W/m² | - |
| 1777858034 | 22.78° C | 42% | 1009.4 hPa | 0 mm | - | 40 W/m² | - |
| 1777857733 | 23.33° C | 42% | 1009.1 hPa | 0 mm | - | 45 W/m² | - |
| 1777857429 | 23.89° C | 43% | 1009.3 hPa | 0 mm | - | 157 W/m² | - |
| 1777857126 | 24.44° C | 41% | 1009.4 hPa | 0 mm | - | 242 W/m² | - |
| 1777856822 | 25° C | 41% | 1009.3 hPa | 0 mm | - | 178 W/m² | - |
| 1777856517 | 25° C | 39% | 1009.7 hPa | 0 mm | - | 192 W/m² | - |
| 1777856214 | 24.44° C | 37% | 1009.5 hPa | 0 mm | - | 175 W/m² | - |
| 1777855911 | 24.44° C | 42% | 1009.8 hPa | 0 mm | - | 240 W/m² | - |
| 1777855609 | 24.44° C | 43% | 1009.8 hPa | 0 mm | - | 195 W/m² | - |
| 1777855306 | 23.89° C | 42% | 1009.8 hPa | 0 mm | - | 223 W/m² | - |
* Rain latest hour (hover to see other rain measurements)
** Current wind speed in m/s (hover to see current wind gust speed)